星链-35149 (STARLINK-35149)

导读 | 豆包AI

STARLINK-35149是美国SpaceX公司于2025年9月5日发射的星链系列卫星,归属星链卫星互联网星座项目。星链项目旨在打造全球覆盖的低轨卫星互联网,能为地面网络覆盖不足区域提供高速宽带接入服务。作为巨型星座的一员,该卫星运行于近地轨道,和其他星链卫星一同组网,扩展全球卫星通信网络覆盖范围,支撑全天候空天地一体化网络服务。

基本信息
目录编号:
65512
目录名称:
STARLINK-35149
国际标识:
2025-198W
轨道中心:
EARTH
卫星名称:
星链-35149
卫星全名:
星链-35149 (STARLINK-35149)
卫星状态:
在轨 (已飞行211 天)
发射日期:
2025-09-05 UTC
国别 :
美国 (US)
星等 :
--
轨道信息
数据来源 国际轨道数据
星历时间: 2026-04-03T18:29:30+0800
1天前
查看轨道信息
半长轴: 6853.353km
偏心率: 0.0001549
轨道倾角: 53.161°
近地点辐角 90.890°
升交点赤经 155.718°
平近点角 269.228°
近地点: 474.154km
远地点: 476.278km
周期: 94.105分钟
每日圈数: 15.301999
详细信息
固有亮度:
5
最大亮度:
2.5
卫星平台:
Starlink V1.0
覆盖范围:
全球
运营商:
太空探索技术公司
运营商所在国:
美国
制造商(研发单位):
太空探索技术公司
制造商所在国:
美国
使用方式:
暂无
卫星简介
Starlink 计划是 SpaceX 推出的全球卫星互联网项目,通过发射低轨道卫星,为全球尤其是偏远地区提供高速、低延迟的互联网服务。自 2019 年起,Starlink 已部署数千颗卫星,旨在缩小全球数字鸿沟,推动互联网普及。该项目还为军事、航空等行业提供通信支持,带来广泛经济效益。
2D轨道图
3D轨道图
轨道高度分析图
轨道倾角分析图
轨道综合分析图
查看轨道综合分析图